TimeAKST,TemperatureF,Dew PointF,Humidity,Sea Level PressureIn,VisibilityMPH,Wind Direction,Wind SpeedMPH,Gust SpeedMPH,PrecipitationIn,Events,Conditions,WindDirDegrees,DateUTC
12:16 AM,33.8,28.4,81,29.29,10.0,SSW,6.9,-,N/A,,Partly Cloudy,210,2012-12-13 09:16:00
12:36 AM,33.8,28.4,81,29.29,10.0,SW,10.4,19.6,N/A,,Scattered Clouds,220,2012-12-13 09:36:00
12:56 AM,33.8,28.4,81,29.28,10.0,SW,13.8,27.6,N/A,,Partly Cloudy,220,2012-12-13 09:56:00
1:16 AM,33.8,28.4,81,29.29,10.0,SW,8.1,21.9,N/A,,Clear,220,2012-12-13 10:16:00
1:36 AM,33.8,30.2,87,29.29,10.0,SSW,12.7,20.7,N/A,,Clear,210,2012-12-13 10:36:00
1:56 AM,33.8,30.2,87,29.29,10.0,SW,13.8,24.2,N/A,,Scattered Clouds,220,2012-12-13 10:56:00
2:16 AM,33.8,30.2,87,29.29,10.0,SW,12.7,24.2,N/A,,Mostly Cloudy,220,2012-12-13 11:16:00
3:36 AM,33.8,30.2,87,29.29,10.0,SW,9.2,21.9,N/A,,Mostly Cloudy,220,2012-12-13 12:36:00
3:56 AM,33.8,30.2,87,29.29,10.0,SSW,9.2,16.1,N/A,,Overcast,210,2012-12-13 12:56:00
4:16 AM,33.8,30.2,87,29.28,10.0,SSW,12.7,18.4,N/A,,Overcast,210,2012-12-13 13:16:00
4:56 AM,33.8,30.2,87,29.27,10.0,SW,18.4,26.5,N/A,,Partly Cloudy,220,2012-12-13 13:56:00
5:16 AM,33.8,30.2,87,29.28,10.0,SSW,11.5,20.7,N/A,,Scattered Clouds,210,2012-12-13 14:16:00
5:36 AM,33.8,30.2,87,29.28,10.0,SSW,13.8,19.6,N/A,,Mostly Cloudy,210,2012-12-13 14:36:00
5:56 AM,33.8,30.2,87,29.28,10.0,SW,11.5,16.1,N/A,,Mostly Cloudy,220,2012-12-13 14:56:00
6:16 AM,33.8,28.4,81,29.28,10.0,SSW,6.9,-,N/A,,Overcast,210,2012-12-13 15:16:00
6:36 AM,33.8,28.4,81,29.29,10.0,SSW,11.5,23.0,N/A,,Partly Cloudy,200,2012-12-13 15:36:00
6:56 AM,33.8,28.4,81,29.30,10.0,SSW,9.2,21.9,N/A,,Clear,210,2012-12-13 15:56:00
7:16 AM,33.8,28.4,81,29.31,10.0,SSW,11.5,20.7,N/A,,Clear,210,2012-12-13 16:16:00
7:36 AM,33.8,28.4,81,29.31,10.0,SSW,12.7,23.0,N/A,,Clear,210,2012-12-13 16:36:00
7:56 AM,33.8,28.4,81,29.32,10.0,SSW,11.5,18.4,N/A,,Clear,210,2012-12-13 16:56:00
8:16 AM,33.8,28.4,81,29.32,10.0,SW,13.8,21.9,N/A,,Clear,230,2012-12-13 17:16:00
8:36 AM,33.8,28.4,81,29.33,10.0,SSW,10.4,17.3,N/A,,Clear,210,2012-12-13 17:36:00
8:56 AM,33.8,28.4,81,29.33,10.0,SW,9.2,17.3,N/A,,Clear,220,2012-12-13 17:56:00
9:16 AM,33.8,28.4,81,29.33,10.0,SW,10.4,19.6,N/A,,Clear,220,2012-12-13 18:16:00
9:36 AM,33.8,28.4,81,29.34,10.0,SW,12.7,19.6,N/A,,Clear,220,2012-12-13 18:36:00
9:56 AM,33.8,28.4,81,29.34,10.0,SW,13.8,19.6,N/A,,Clear,230,2012-12-13 18:56:00
10:16 AM,33.8,26.6,75,29.34,10.0,SSW,10.4,-,N/A,,Clear,210,2012-12-13 19:16:00
10:36 AM,33.8,26.6,75,29.34,10.0,SW,11.5,-,N/A,,Clear,230,2012-12-13 19:36:00
10:56 AM,33.8,26.6,75,29.35,10.0,SW,9.2,-,N/A,,Clear,220,2012-12-13 19:56:00
11:16 AM,33.8,26.6,75,29.35,10.0,SW,9.2,-,N/A,,Clear,230,2012-12-13 20:16:00
11:36 AM,33.8,26.6,75,29.35,10.0,SW,9.2,16.1,N/A,,Clear,230,2012-12-13 20:36:00
11:56 AM,33.8,28.4,81,29.35,10.0,SW,11.5,18.4,N/A,,Clear,230,2012-12-13 20:56:00
12:16 PM,33.8,26.6,75,29.35,10.0,SW,11.5,-,N/A,,Clear,220,2012-12-13 21:16:00
12:36 PM,33.8,26.6,75,29.36,10.0,South,6.9,-,N/A,,Clear,170,2012-12-13 21:36:00
12:56 PM,33.8,26.6,75,29.35,10.0,SSW,9.2,-,N/A,,Clear,210,2012-12-13 21:56:00
1:16 PM,33.8,26.6,75,29.35,10.0,SW,8.1,-,N/A,,Clear,220,2012-12-13 22:16:00
1:36 PM,33.8,26.6,75,29.34,10.0,SSW,6.9,16.1,N/A,,Clear,210,2012-12-13 22:36:00
2:16 PM,33.8,28.4,81,29.33,10.0,SW,13.8,-,N/A,,Clear,230,2012-12-13 23:16:00
3:16 PM,33.8,26.6,75,29.32,10.0,SW,11.5,17.3,N/A,,Clear,220,2012-12-14 00:16:00
3:36 PM,33.8,26.6,75,29.32,10.0,SW,9.2,16.1,N/A,,Clear,230,2012-12-14 00:36:00
3:56 PM,33.8,26.6,75,29.32,10.0,SSW,8.1,-,N/A,,Scattered Clouds,200,2012-12-14 00:56:00
4:16 PM,32.0,26.6,80,29.32,10.0,SW,8.1,-,N/A,,Partly Cloudy,230,2012-12-14 01:16:00
4:36 PM,32.0,26.6,80,29.32,10.0,South,6.9,-,N/A,,Clear,190,2012-12-14 01:36:00
4:56 PM,32.0,26.6,80,29.32,10.0,SSW,9.2,-,N/A,,Partly Cloudy,210,2012-12-14 01:56:00
5:16 PM,32.0,26.6,80,29.31,10.0,SSW,8.1,16.1,N/A,,Mostly Cloudy,210,2012-12-14 02:16:00
5:36 PM,30.2,26.6,86,29.32,10.0,SSW,6.9,-,N/A,,Mostly Cloudy,210,2012-12-14 02:36:00
5:56 PM,32.0,26.6,80,29.32,10.0,SSW,6.9,-,N/A,,Scattered Clouds,200,2012-12-14 02:56:00
6:16 PM,30.2,28.4,93,29.31,10.0,South,8.1,-,N/A,,Scattered Clouds,190,2012-12-14 03:16:00
6:36 PM,32.0,28.4,87,29.32,10.0,South,6.9,-,N/A,,Partly Cloudy,190,2012-12-14 03:36:00
6:56 PM,30.2,28.4,93,29.32,10.0,South,8.1,-,N/A,,Partly Cloudy,180,2012-12-14 03:56:00
7:16 PM,30.2,26.6,86,29.31,10.0,South,8.1,-,N/A,,Mostly Cloudy,180,2012-12-14 04:16:00
7:36 PM,30.2,26.6,86,29.30,10.0,South,8.1,-,N/A,,Mostly Cloudy,180,2012-12-14 04:36:00
7:56 PM,30.2,26.6,86,29.30,10.0,South,8.1,-,N/A,,Partly Cloudy,190,2012-12-14 04:56:00
8:16 PM,30.2,26.6,86,29.30,10.0,SSW,6.9,-,N/A,,Clear,200,2012-12-14 05:16:00
8:36 PM,30.2,26.6,86,29.30,10.0,South,8.1,-,N/A,,Clear,190,2012-12-14 05:36:00
8:56 PM,30.2,26.6,86,29.30,10.0,SSW,6.9,-,N/A,,Clear,200,2012-12-14 05:56:00
9:16 PM,30.2,24.8,80,29.30,10.0,South,8.1,-,N/A,,Clear,190,2012-12-14 06:16:00
9:36 PM,30.2,24.8,80,29.30,10.0,SW,3.5,-,N/A,,Clear,220,2012-12-14 06:36:00
9:56 PM,30.2,24.8,80,29.29,10.0,South,5.8,-,N/A,,Clear,190,2012-12-14 06:56:00
10:16 PM,28.4,24.8,86,29.29,10.0,South,3.5,-,N/A,,Clear,190,2012-12-14 07:16:00
10:36 PM,28.4,24.8,86,29.29,10.0,Calm,Calm,-,N/A,,Clear,0,2012-12-14 07:36:00
10:56 PM,28.4,23.0,80,29.28,10.0,Calm,Calm,-,N/A,,Clear,0,2012-12-14 07:56:00
11:16 PM,28.4,23.0,80,29.28,10.0,South,5.8,-,N/A,,Clear,190,2012-12-14 08:16:00
11:36 PM,28.4,23.0,80,29.28,10.0,South,4.6,-,N/A,,Clear,180,2012-12-14 08:36:00
11:56 PM,24.8,19.4,80,29.28,10.0,Calm,Calm,-,N/A,,Clear,0,2012-12-14 08:56:00